Date String (YYYY-MM-DD hh:mm:ss) UTC,Instrument flags,Ambient pressure (hPa),Sample flow (lpm),Bypass flow (lpm),Sample temperature (°C),Ambient temperature (°C),ASC tube jacket temperature (°C),LED temperature (°C),Box temperature (°C),Sample RH (%),Span deviation,Mass concentration (μg/m³),Mass concentration (μg/m³),Mass concentration (μg/m³)
DateTimeUTC,F1_M11,P_M11,Q1_M11,Q2_M11,T1_M11,T2_M11,T3_M11,T4_M11,T5_M11,U1_M11,ZSPAN_M11,X0_M11,X2_M11,X1_M11
2022-01-18 05:00:00,,0820.8,4.99,0.00,25.4,24.6,00.0,34.4,27.2,08.1,0000.0,0013.34,0005.80,0004.94
2022-01-18 05:01:00,,0820.8,5.00,0.00,25.4,24.6,00.0,34.4,27.2,08.2,0000.0,0013.80,0005.78,0004.94
2022-01-18 05:02:00,,0820.9,5.00,0.00,25.4,24.6,00.0,34.4,27.2,08.2,0000.0,0014.06,0005.75,0004.94
2022-01-18 05:03:00,,0820.8,5.00,0.00,25.4,24.6,00.0,34.4,27.2,08.2,0000.0,0013.77,0005.75,0004.95
2022-01-18 05:04:00,,0820.8,5.00,0.00,25.4,24.6,00.0,34.4,27.2,08.1,0000.0,0013.65,0005.74,0004.95
2022-01-18 05:05:00,,0820.8,5.00,0.00,25.5,24.6,00.0,34.4,27.2,08.2,0000.0,0013.98,0005.76,0004.94
2022-01-18 05:06:00,,0820.8,4.99,0.00,25.4,24.6,00.0,34.4,27.2,08.2,0000.0,0013.60,0005.78,0004.93
2022-01-18 05:07:00,,0820.8,5.01,0.00,25.4,24.6,00.0,34.4,27.2,08.2,0000.0,0013.44,0005.77,0004.91
2022-01-18 05:08:00,,0820.7,5.00,0.00,25.4,24.6,00.0,34.4,27.2,08.2,0000.0,0013.60,0005.69,0004.84
2022-01-18 05:09:00,,0820.7,4.98,0.00,25.4,24.6,00.0,34.4,27.2,08.2,0000.0,0013.44,0005.67,0004.82
2022-01-18 05:10:00,,0820.7,5.02,0.00,25.4,24.6,00.0,34.4,27.2,08.2,0000.0,0013.60,0005.67,0004.80
2022-01-18 05:11:00,,0820.7,5.00,0.00,25.4,24.6,00.0,34.4,27.2,08.3,0000.0,0014.67,0005.67,0004.80
2022-01-18 05:12:00,,0820.8,5.01,0.00,25.4,24.6,00.0,34.4,27.2,08.2,0000.0,0013.86,0005.66,0004.80
2022-01-18 05:13:00,,0820.9,5.01,0.00,25.4,24.6,00.0,34.4,27.2,08.2,0000.0,0013.96,0005.62,0004.76
2022-01-18 05:14:00,,0820.9,5.01,0.00,25.4,24.6,00.0,34.4,27.2,08.2,0000.0,0014.50,0005.63,0004.73
2022-01-18 05:15:00,,0820.8,5.00,0.00,25.4,24.6,00.0,34.4,27.2,08.2,0000.0,0014.68,0005.64,0004.72
2022-01-18 05:16:00,,0820.8,4.99,0.00,25.4,24.6,00.0,34.4,27.2,08.1,0000.0,0014.20,0005.56,0004.68
2022-01-18 05:17:00,,0820.8,5.00,0.00,25.4,24.6,00.0,34.4,27.2,08.1,0000.0,0014.73,0005.49,0004.63
2022-01-18 05:18:00,,0820.8,4.99,0.00,25.4,24.6,00.0,34.4,27.2,08.0,0000.0,0014.60,0005.37,0004.55
2022-01-18 05:19:00,,0820.8,5.02,0.00,25.4,24.6,00.0,34.4,27.2,08.1,0000.0,0014.20,0005.30,0004.50
2022-01-18 05:20:00,,0820.8,4.98,0.00,25.4,24.6,00.0,34.4,27.2,08.0,0000.0,0013.92,0005.27,0004.45
2022-01-18 05:21:00,,0820.8,5.02,0.00,25.4,24.6,00.0,34.4,27.2,08.0,0000.0,0013.13,0005.20,0004.38
2022-01-18 05:22:00,,0820.9,4.98,0.00,25.4,24.6,00.0,34.4,27.2,08.0,0000.0,0012.42,0005.12,0004.31
2022-01-18 05:23:00,,0820.8,5.01,0.00,25.4,24.6,00.0,34.4,27.2,08.0,0000.0,0013.17,0005.10,0004.25
2022-01-18 05:24:00,,0820.8,4.99,0.00,25.4,24.6,00.0,34.4,27.2,08.1,0000.0,0013.36,0005.09,0004.23
2022-01-18 05:25:00,,0820.8,5.01,0.00,25.4,24.6,00.0,34.4,27.2,08.2,0000.0,0013.05,0005.04,0004.24
2022-01-18 05:26:00,,0820.8,5.01,0.00,25.4,24.6,00.0,34.4,27.2,08.2,0000.0,0013.22,0005.01,0004.24
2022-01-18 05:27:00,,0820.8,5.00,0.00,25.4,24.6,00.0,34.4,27.2,08.2,0000.0,0014.17,0005.03,0004.26
2022-01-18 05:28:00,,0820.7,5.00,0.00,25.4,24.6,00.0,34.4,27.2,08.1,0000.0,0013.64,0005.04,0004.27
2022-01-18 05:29:00,,0820.7,5.00,0.00,25.4,24.6,00.0,34.4,27.2,08.2,0000.0,0014.68,0005.16,0004.32
2022-01-18 05:30:00,,0820.6,5.00,0.00,25.4,24.6,00.0,34.3,27.1,08.2,0000.0,0014.93,0005.23,0004.36
2022-01-18 05:31:00,,0820.6,4.98,0.00,25.4,24.5,00.0,34.3,27.2,08.1,0000.0,0014.70,0005.20,0004.38
2022-01-18 05:32:00,,0820.6,5.01,0.00,25.4,24.5,00.0,34.4,27.2,08.2,0000.0,0014.40,0005.22,0004.42
2022-01-18 05:33:00,,0820.6,4.98,0.00,25.4,24.5,00.0,34.4,27.1,08.2,0000.0,0014.07,0005.27,0004.47
2022-01-18 05:34:00,,0820.7,5.00,0.00,25.4,24.5,00.0,34.3,27.1,08.2,0000.0,0013.22,0005.27,0004.52
2022-01-18 05:35:00,,0820.7,5.01,0.00,25.4,24.5,00.0,34.4,27.1,08.2,0000.0,0012.44,0005.30,0004.55
2022-01-18 05:36:00,,0820.7,5.00,0.00,25.4,24.5,00.0,34.3,27.1,08.2,0000.0,0012.23,0005.30,0004.52
2022-01-18 05:37:00,,0820.7,5.00,0.00,25.3,24.5,00.0,34.3,27.1,08.2,0000.0,0012.80,0005.28,0004.50
2022-01-18 05:38:00,,0820.7,5.00,0.00,25.3,24.5,00.0,34.3,27.1,08.3,0000.0,0012.41,0005.32,0004.53
2022-01-18 05:39:00,,0820.7,5.01,0.00,25.3,24.5,00.0,34.3,27.1,08.3,0000.0,0012.78,0005.34,0004.56
2022-01-18 05:40:00,,0820.7,4.99,0.00,25.3,24.5,00.0,34.3,27.1,08.3,0000.0,0011.70,0005.33,0004.59
2022-01-18 05:41:00,,0820.6,5.00,0.00,25.3,24.5,00.0,34.3,27.1,08.3,0000.0,0011.84,0005.32,0004.63
2022-01-18 05:42:00,,0820.6,5.01,0.00,25.3,24.5,00.0,34.3,27.1,08.4,0000.0,0012.24,0005.43,0004.69
2022-01-18 05:43:00,,0820.7,4.99,0.00,25.3,24.5,00.0,34.3,27.1,08.3,0000.0,0012.75,0005.55,0004.73
2022-01-18 05:44:00,,0820.6,5.01,0.00,25.3,24.5,00.0,34.3,27.1,08.4,0000.0,0013.14,0005.56,0004.77
2022-01-18 05:45:00,,0820.6,4.99,0.00,25.3,24.5,00.0,34.3,27.1,08.4,0000.0,0013.35,0005.60,0004.81
2022-01-18 05:46:00,,0820.6,5.00,0.00,25.3,24.5,00.0,34.3,27.1,08.4,0000.0,0013.72,0005.67,0004.86
2022-01-18 05:47:00,,0820.7,5.01,0.00,25.3,24.5,00.0,34.3,27.0,08.4,0000.0,0013.49,0005.72,0004.93
2022-01-18 05:48:00,,0820.7,4.99,0.00,25.3,24.4,00.0,34.3,27.0,08.5,0000.0,0012.97,0005.81,0005.00
2022-01-18 05:49:00,,0820.7,4.99,0.00,25.2,24.4,00.0,34.3,27.0,08.5,0000.0,0012.26,0005.84,0005.04
2022-01-18 05:50:00,,0820.7,5.01,0.00,25.2,24.4,00.0,34.3,27.0,08.6,0000.0,0012.13,0005.91,0005.08
2022-01-18 05:51:00,,0820.7,5.00,0.00,25.2,24.4,00.0,34.2,27.0,08.6,0000.0,0012.50,0005.94,0005.13
2022-01-18 05:52:00,,0820.7,5.00,0.00,25.2,24.4,00.0,34.2,27.0,08.6,0000.0,0012.69,0005.99,0005.17
2022-01-18 05:53:00,,0820.7,4.99,0.00,25.2,24.4,00.0,34.2,27.0,08.6,0000.0,0012.62,0005.98,0005.19
2022-01-18 05:54:00,,0820.7,5.01,0.00,25.2,24.4,00.0,34.2,27.0,08.6,0000.0,0012.57,0005.96,0005.23
2022-01-18 05:55:00,,0820.6,5.01,0.00,25.2,24.4,00.0,34.2,27.0,08.6,0000.0,0012.68,0005.98,0005.27
2022-01-18 05:56:00,,0820.6,5.00,0.00,25.2,24.4,00.0,34.2,27.0,08.6,0000.0,0012.84,0006.04,0005.32
2022-01-18 05:57:00,,0820.7,5.01,0.00,25.2,24.4,00.0,34.2,27.0,08.6,0000.0,0012.81,0006.07,0005.36
2022-01-18 05:58:00,,0820.7,4.99,0.00,25.2,24.4,00.0,34.2,27.0,08.6,0000.0,0012.74,0006.09,0005.39
2022-01-18 05:59:00,,0820.7,5.01,0.00,25.2,24.4,00.0,34.2,27.0,08.6,0000.0,0012.64,0006.06,0005.41
